Flag for Russia Weather past 2 weeks in Ulyanovsk, Russia

Now
14 °F

Overcast.


Feels Like: 8 °F
Forecast: 7 / 17 °F
Wind: 3 mph from Southwest

Location: Ulyanovsk

Current Time: Dec 27, 2014 at 8:56:16 PM

Latest Report: Dec 27, 2014 at 8:00 PM


Visibility: N/A

Pressure: 30.30 "Hg

Humidity: 92%

Dew point: 12 °F

Location of UlyanovskLocation

Historic Weather in Ulyanovsk — Graph

°F

Ulyanovsk temperature yesterday

Maximum temperature yesterday: 19 °F (at 4:00 AM)
Minimum temperature yesterday: 9 °F (at 4:00 PM)
Average temperature yesterday: 13 °F

Past Weeks' High & Low Weather Summary

 TemperatureHumidityPressure
High37 °F (Dec 21, 12:00 PM)100% (Dec 12, 7:00 PM)30.42 "Hg (Dec 12, 7:00 PM)
Low0 °F (Dec 27, 6:00 AM)68% (Dec 25, 12:00 PM)29.06 "Hg (Dec 24, 10:00 AM)
Average26 °F93%29.86 "Hg
* Reported Dec 12 7:00 PM — Dec 27 7:00 PM, Ulyanovsk, Weather by CustomWeather, © 2014

Note: Actual official high and low records may vary slightly from our data, if they occured in-between our weather recording intervals... More about our weather records

Advertising

Ulyanovsk weather history for previous 24 hours

 ConditionsComfort  
Time TempWeatherWind HumidityBarometerVisibility
7:00 PM
Dec 27
14 °FOvercast.8 mph92%30.30 "HgN/A
6:00 PM10 °FPassing clouds.8 mph85%30.30 "HgN/A
5:00 PM7 °FPassing clouds.3 mph92%30.27 "HgN/A
4:00 PM7 °FScattered clouds.8 mph85%30.27 "HgN/A
3:00 PM10 °FPartly sunny.8 mph85%30.27 "Hg5 mi
2:00 PM12 °FPartly sunny.10 mph79%30.24 "Hg5 mi
1:00 PM14 °FOvercast.10 mph79%30.21 "Hg5 mi
12:00 PM14 °FMostly cloudy.13 mph79%30.21 "Hg5 mi
11:00 AM12 °FMostly cloudy.10 mph85%30.18 "Hg5 mi
10:00 AM9 °FOvercast.13 mph85%30.21 "Hg5 mi
9:00 AM0 °FPassing clouds.3 mph84%30.21 "Hg5 mi
8:00 AM1 °FClear.6 mph85%30.18 "Hg5 mi
7:00 AM0 °FClear.6 mph84%30.15 "HgN/A
6:00 AM0 °FClear.6 mph92%30.15 "HgN/A
5:00 AM1 °FClear.8 mph85%30.15 "HgN/A
4:00 AM3 °FClear.6 mph85%30.12 "HgN/A
3:00 AM7 °FClear.10 mph85%30.09 "HgN/A
2:00 AM1 °FClear.10 mph85%30.07 "HgN/A
1:00 AM7 °FClear.13 mph85%30.07 "HgN/A
12:00 AM9 °FClear.15 mph85%30.07 "HgN/A
11:00 PM
Dec 26
9 °FClear.13 mph85%30.04 "HgN/A
10:00 PM9 °FClear.13 mph85%30.01 "HgN/A
9:00 PM9 °FClear.15 mph78%30.01 "HgN/A
8:00 PM9 °FClear.13 mph78%29.98 "HgN/A
Weather by CustomWeather, © 2014

See weather overviewHow to use our weather pages